Flag for U.S.A. Weather past 2 weeks in Augusta, Maine, U.S.A.

Now
61 °F

Passing clouds.


Feels Like: 61 °F
Forecast: 59 / 77 °F
Wind: 6 mph from Northwest

Location: Augusta State Airport

Current Time: May 29, 2015 at 6:19:01 AM

Latest Report: May 29, 2015 at 5:53 AM


Visibility: 10 mi

Pressure: 30.27 "Hg

Humidity: 90%

Dew point: 58 °F

Location of AugustaLocation

Historic Weather in Augusta — Graph

°F

Augusta temperature yesterday

Maximum temperature yesterday: 83 °F (at 1:53 PM)
Minimum temperature yesterday: 60 °F (at 4:53 AM)
Average temperature yesterday: 70 °F

Past Weeks' High & Low Weather Summary

 TemperatureHumidityPressure
High83 °F (May 28, 1:53 PM)100% (May 17, 2:53 AM)30.32 "Hg (May 17, 2:53 AM)
Low37 °F (May 23, 3:53 AM)18% (May 14, 4:53 PM)29.63 "Hg (May 20, 4:53 AM)
Average60 °F61%30.06 "Hg
* Reported May 14 5:53 AM — May 29 5:00 AM, Augusta, Weather by CustomWeather, © 2015

Note: Actual official high and low records may vary slightly from our data, if they occured in-between our weather recording intervals... More about our weather records

Advertising

Augusta weather history for previous 24 hours

 ConditionsComfort  
Time TempWeatherWind HumidityBarometerVisibility
5:00 AM
Fri, May 29
62 °FOvercast.7 mph86%30.25 "Hg10 mi
3:53 AM62 °FPassing clouds.7 mph86%30.22 "Hg10 mi
2:53 AM64 °FOvercast.8 mph81%30.21 "Hg10 mi
1:53 AM64 °FMostly cloudy.7 mph81%30.20 "Hg10 mi
12:53 AM63 °FPassing clouds.5 mph87%30.18 "Hg10 mi
11:53 PM
Thu, May 28
65 °FOvercast.6 mph81%30.17 "Hg10 mi
10:53 PM65 °FOvercast.5 mph85%30.15 "Hg10 mi
9:53 PM67 °FMostly cloudy.3 mph79%30.14 "Hg10 mi
8:53 PM68 °FOvercast.8 mph73%30.11 "Hg10 mi
7:53 PM69 °FPartly sunny.6 mph79%30.09 "Hg10 mi
6:53 PM69 °FMostly cloudy.No wind90%30.08 "Hg8 mi
6:02 PM73 °FMostly cloudy.3 mph74%30.04 "Hg10 mi
5:53 PM73 °FBroken clouds.6 mph79%30.04 "Hg10 mi
4:53 PM75 °FSunny.9 mph76%30.01 "Hg10 mi
3:53 PM71 °FStrong thunderstorms. Fog.10 mph87%30.01 "Hg1 mi
2:53 PM80 °FScattered clouds.12 mph60%29.99 "Hg10 mi
2:03 PM81 °FThundershowers. Passing clouds.14 mph58%30.00 "Hg10 mi
1:53 PM83 °FSunny.9 mph57%29.99 "Hg9 mi
12:53 PM81 °FSunny.14 mph58%30.01 "Hg10 mi
11:53 AM80 °FSunny.12 mph62%30.03 "Hg10 mi
10:53 AM78 °FSunny.6 mph66%30.05 "Hg10 mi
9:53 AM73 °FSunny.7 mph74%30.06 "Hg10 mi
8:53 AM70 °FSunny.6 mph79%30.07 "Hg10 mi
7:53 AM67 °FScattered clouds.3 mph85%30.07 "Hg10 mi
6:53 AM62 °FSunny.6 mph90%30.06 "Hg7 mi
Weather by CustomWeather, © 2015

See weather overviewHow to use our weather pages